www.pogodaiklimat.ru

Погода и климат >> Архив погоды >> Россия >> Магаданская область >> Сусуман


АРХИВ ПОГОДЫ в Сусумане

Время (UTC), дата Ветер
(напр.,м/с)
 
Видим.   Явления Облачность Т
(С)
Тd
(С)
f
(%)
Тe
(С)
Тes
(С)
Комфортность P
(гПа)
Po
(гПа)
Тmin
(С)
Tmax
(С)
R
(мм)
R24
(мм)
S
(см)
06 17.02 штиль 0 20 км слаб. снег 10/4 1000 м
[Sc Ac As]
-31.1 -37.7 52 -31 -31 опасность
обморожения
1007.7 919.4
09 17.02 штиль 0 20 км слаб. снег 10/4 1000 м
[Sc Ac As]
-30.4 -35.9 58 -30 -30 1008.7 920.5 -30.4 0.0
12 17.02 штиль 0 10 км слаб. снег 10/4 1000 м
[Sc Ac As]
-30.3 -33.9 71 -30 -30 1009.7 921.5
15 17.02 штиль 0 10 км слаб. снег 10/4 1000 м
[Sc Ac As]
-29.7 -33.2 71 -30 -30 1009.6 921.6
18 17.02 СВ 1 10 км слаб. снег 10/4 1000 м
[Sc Ac As]
-29.4 -33.3 69 -33 -33 опасность
обморожения
1010.3 922.3
21 17.02 штиль 0 4000 м снег 10/4 1000 м
[Sc Ac As]
-29.3 -33.0 70 -29 -29 1010.9 922.9 -30.4 0.5 26
00 18.02 С 1 50 км {снег} 9/3 1000 м
[Sc Ac As]
-28.2 -33.0 63 -32 -32 опасность
обморожения
1011.3 923.7
03 18.02 штиль 0 50 км 9/3 1000 м
[Sc Ac trans]
-24.7 -30.9 56 -25 -24 1010.2 923.8
06 18.02 Ю 1 50 км 10/0
[Ac As]
-24.9 -30.3 61 -28 -28 1011.3 924.8
09 18.02 В 1 20 км слаб. снег 10/0
[Ac As]
-28.0 -31.5 72 -32 -32 опасность
обморожения
1014.1 926.3 -24.0 0.7
12 18.02 С 1 20 км слаб. снег 10/0
[Ac As]
-31.3 -34.4 74 -36 -36 опасность
обморожения
1017.0 927.8
15 18.02 СВ 1 50 км {снег} 6/0
[Ac trans Ci fib]
-36.4 -39.9 70 -41 -41 опасность
обморожения
1020.5 929.1
18 18.02 СВ 1 50 км {снег} 6/0
[Ci fib]
-37.4 -41.1 68 -42 -42 опасность
обморожения
1022.4 930.5
21 18.02 СВ 1 50 км 6/0
[Ci fib]
-38.1 -42.0 67 -43 -43 опасность
обморожения
1024.2 931.9 -38.1 0.0 26
00 19.02 штиль 0 50 км 4/0
[Ci fib]
-34.3 -39.2 61 -34 -33 опасность
обморожения
1023.8 932.9 -38.9
03 19.02 штиль 0 50 км ясно -27.2 -35.0 47 -27 -25 1020.9 932.8
06 19.02 Ю 2 50 км ясно -28.5 -34.3 57 -36 -36 опасность
обморожения
1021.5 932.8
09 19.02 штиль 0 50 км ясно -34.6 -38.1 70 -35 -35 опасность
обморожения
1024.7 933.7 -26.4
12 19.02 СВ 1 50 км ясно -40.1 -44.0 66 -45 -45 опасность
обморожения
1027.7 934.3
15 19.02 СВ 2 50 км ясно -42.4 -46.6 63 -52 -52 опасность
обморожения
1029.4 935.0
18 19.02 СВ 1 50 км ясно -42.3 -46.7 62 -48 -48 опасность
обморожения
1029.9 935.4
21 19.02 СВ 1 50 км ясно -43.9 -48.4 61 -50 -50 опасность
обморожения
1031.0 935.9 -43.9 26
00 20.02 С 1 50 км 4/0
[Ci fib]
-40.2 -44.6 63 -45 -44 опасность
обморожения
1030.3 936.7 -44.2
03 20.02 штиль 0 50 км 9/0
[Cs]
-30.4 -37.9 48 -30 -29 1025.9 936.2
06 20.02 Ю 1 50 км 9/0
[Ac trans Cs]
-29.2 -36.0 52 -33 -33 опасность
обморожения
1025.3 936.1
09 20.02 ЮВ 1 50 км 6/0
[Ac trans Ci fib]
-36.9 -41.3 63 -42 -42 опасность
обморожения
1029.6 937.3 -27.3
12 20.02 СВ 2 50 км 9/0
[Cs]
-37.9 -41.8 67 -47 -47 опасность
обморожения
1030.6 937.8
15 20.02 СВ 1 50 км 8/0
[Cs]
-40.4 -44.5 65 -46 -46 опасность
обморожения
1031.9 938.0
18 20.02 штиль 0 50 км 9/0
[Cs]
-41.0 -45.2 64 -41 -41 опасность
обморожения
1032.4 938.3
21 20.02 СВ 1 50 км 9/0
[Cs]
-41.6 -45.8 63 -47 -47 опасность
обморожения
1032.6 938.2 -42.8 26
00 21.02 штиль 0 50 км 9/0
[Ac trans Cs]
-37.1 -41.6 63 -37 -36 опасность
обморожения
1030.4 937.9
03 21.02 ЮЗ 1 50 км 9/0
[Ac trans Ci fib]
-29.6 -36.7 50 -34 -32 опасность
обморожения
1025.9 936.5
06 21.02 Ю 2 50 км 9/0
[Ac trans Ci fib]
-28.5 -34.8 55 -36 -36 опасность
обморожения
1024.0 935.2
09 21.02 штиль 0 50 км 9/0
[Cs]
-32.3 -36.4 67 -32 -32 опасность
обморожения
1025.0 934.7 -28.0
12 21.02 СВ 1 20 км слаб. снег 10/0
[Ac As]
-34.5 -38.2 69 -39 -39 опасность
обморожения
1025.1 934.0
15 21.02 штиль 0 20 км слаб. снег 9/0
[Ac As]
-37.4 -41.1 68 -37 -37 опасность
обморожения
1025.2 933.1
18 21.02 СВ 1 50 км {снег} 9/0
[Cs]
-41.1 -45.2 64 -46 -46 опасность
обморожения
1026.0 932.4
21 21.02 СВ 2 50 км 9/0
[Cs]
-40.1 -44.2 65 -49 -49 опасность
обморожения
1024.9 931.8 -41.3 0.2 26
00 22.02 штиль 0 50 км ясно -36.5 -41.8 58 -37 -35 опасность
обморожения
1023.3 931.7
03 22.02 штиль 0 50 км ясно -25.7 -34.7 43 -26 -23 1017.5 930.2
06 22.02 ЮЗ 1 50 км ясно -27.0 -33.8 52 -31 -31 опасность
обморожения
1016.8 929.1
09 22.02 ЮВ 1 50 км ясно -38.8 -42.5 68 -44 -44 опасность
обморожения
1021.6 929.2 -25.3
12 22.02 СВ 2 50 км ясно -42.6 -46.9 62 -52 -52 опасность
обморожения
1023.2 929.4
15 22.02 СВ 1 50 км ясно -44.7 -49.3 60 -50 -50 опасность
обморожения
1023.0 928.3
18 22.02 СВ 1 50 км ясно -45.9 -50.6 59 -52 -52 опасность
обморожения
1022.4 927.3
21 22.02 СВ 1 50 км ясно -41.6 -45.9 63 -47 -47 опасность
обморожения
1020.0 926.8 -46.0 26
00 23.02 штиль 0 50 км 4/0
[Ci fib]
-39.3 -43.6 63 -39 -38 опасность
обморожения
1019.0 926.7
03 23.02 штиль 0 50 км 9/0
[Cs]
-31.9 -38.0 55 -32 -30 опасность
обморожения
1014.8 925.5
06 23.02 штиль 0 50 км 9/0
[Cs]
-29.0 -35.7 52 -29 -29 1013.9 925.7
09 23.02 штиль 0 50 км 9/0
[As trans Cs]
-32.4 -36.3 68 -32 -32 опасность
обморожения
1016.6 927.0 -28.4
12 23.02 штиль 0 50 км 9/0
[As trans Cs]
-35.0 -38.5 70 -35 -35 опасность
обморожения
1018.7 928.0
15 23.02 штиль 0 50 км 9/0
[Cs]
-38.2 -42.0 67 -38 -38 опасность
обморожения
1020.4 928.5
18 23.02 штиль 0 50 км 8/0
[Ci fib]
-40.6 -44.7 64 -41 -41 опасность
обморожения
1021.8 928.8
21 23.02 штиль 0 20 км слаб. снег 10/0
[Cs]
-41.0 -45.2 64 -41 -41 опасность
обморожения
1022.4 929.2 -41.0 0.0 26
00 24.02 С 1 50 км {снег} 9/0
[Cs]
-35.7 -40.2 63 -40 -39 опасность
обморожения
1020.0 929.0
03 24.02 штиль 0 50 км 6/0
[Ci fib]
-26.4 -33.5 51 -26 -24 1014.4 927.1

 

Местоположение метеостанции Сусуман (Магаданская область, Россия): широта 62.78 долгота 148.10 высота над уровнем моря 655 м.

В архиве по умолчанию представлена погода в Сусумане за последнюю неделю. Архивные данные за месяц целиком и за предыдущие месяцы, начиная с января 2011 года, Вы можете получить, выбрав интересующий диапазон дат из раскрывающегося списка и нажав кнопку "Ввод!".


*Определитесь, кто Вы:
робот инопланетянин человек

Внимание! Время в таблицах - всемирное. Для получения местного времени необходимо прибавить поправку, которая равна 11 ч.

Смотрите также архив погоды в соседних городах и на ближайших метеорологических станциях:

Погода в Ягодной (Магаданская область, Россия) (82 км)
Погода на Озере Джека Лондона (Магаданская область, Россия) (106 км)
Погода в Колымской (Магаданская область, Россия) (107 км)
Погода в Совхозе Эльген (Магаданская область, Россия) (127 км)
Погода в Усть-Бохапче (Магаданская область, Россия) (149 км)
Погода в Делянкире (Якутия, Россия) (171 км)
Погода в Усть-Омчуге (Магаданская область, Россия) (201 км)
Погода в Среднекане (Магаданская область, Россия) (218 км)
Погода в Сеймчане (Магаданская область, Россия) (219 км)
Погода в Оймяконе (Якутия, Россия) (258 км)

Пояснения к столбцам:

Ветер - указаны скорость ветра в м/с - средняя за 10 мин, порывы в срок и между сроками (в фигурных скобках) и направление, откуда дует ветер: С - северный, СВ - северо-восточный, В - восточный, ЮВ - юго-восточный, Ю - южный, ЮЗ - юго-западный, З - западный, СЗ - северо-западный.
Видимость - горизонтальная дальность видимости в метрах или километрах. При видимости от 1 до 10 км при отсутствии осадков обычно наблюдается дымка, при ухудшении видимости до 1 км и менее - туман. В сухую погоду видимость может ухудшаться дымом, пылью или мглою.
Явления - указаны атмосферные явления, наблюдавшиеся в срок или в последний час перед сроком; фигурными скобками обозначены явления, наблюдавшиеся между сроками (за 1-3 часа до срока); квадратными скобками обозначены град или гололедные отложения с указанием их диаметра в мм.
Облачность - указаны через наклонную черту общая и нижняя облачность в баллах и высота нижней границы облаков в метрах; квадратными скобками обозначены формы облаков: Ci - перистые, Cs - перисто-слоистые, Cc - перисто-кучевые, Ac - высококучевые, As - высокослоистые, Sc - слоисто-кучевые, Ns - слоисто-дождевые, Cu - кучевые, Cb - кучево-дождевые. Подробнее классификацию облаков см. в Атласе облаков (PDF).
T - Температура воздуха - температура, измеренная на высоте 2 м над землей.
Td - Температура точки росы - температура, при понижении до которой содержащийся в воздухе водяной пар достигнет насыщения.
f - Относительная влажность воздуха - влажноcть воздуха, измеренная на высоте 2 м над землей.
Te - Эффективная температура - температура, которую ощущает одетый по сезону человек в тени. Характеристика душности погоды. При расчете учитывается влияние влажности воздуха и скорости ветра на теплоощущения человека.
Tes - Эффективная температура на солнце - температура, которую ощущает человек, с поправкой на солнечный нагрев. Характеристика знойности погоды. Зависит от высоты солнца над горизонтом, облачности и скорости ветра. Ночью, в пасмурную погоду, а также при ветре 12 м/с и более поправка равна нулю.
P - Атмосферное давление - приведенное к уровню моря атмосферное давление.
Po - Атмосферное давление - измеренное на уровне метеостанции атмосферное давление.
Tmin - Минимальная температура - минимум температуры воздуха на высоте 2 м над землей.
Tmax - Максимальная температура - максимум температуры воздуха на высоте 2 м над землей.
R - Количество осадков - Количество выпавших осадков за период времени, мм. При наведении курсора мыши на число - период времени, за который выпало указанное количество осадков.
R24 - Количество осадков - Количество выпавших осадков за 24 часа, мм.
S - Снежный покров - Высота снежного покрова, см. При наведении курсора мыши на число - состояние снежного покрова и степень покрытия местности в баллах.